Regional Weather Roundup
Issued by NWS

Home | Current Version | Previous Version | Text Only | Print | Product List | Glossary On
Versions: 1 2 3 4 5 6 7 8 9 10 11 12 13 14 15 16 17 18 19 20 21 22 23 24 25 26 27 28 29 30 31 32 33 34 35 36 37 38 39 40 41 42 43 44 45 46 47 48 49 50
000
ASUS43 KFSD 260802
RWRSD

WEATHER ROUNDUP FOR SOUTH DAKOTA
NATIONAL WEATHER SERVICE SIOUX FALLS SD
200 AM CST MON JAN 26 2015

NOTE: "FAIR" INDICATES FEW OR NO CLOUDS BELOW 12,000 FEET WITH NO
SIGNIFICANT WEATHER AND/OR OBSTRUCTIONS TO VISIBILITY.


SDZ001>005-009-010-012>017-260900-
NORTHWEST AND NORTH CENTRAL SOUTH DAKOTA

CITY           SKY/WX    TMP DP  RH WIND       PRES   REMARKS
BUFFALO          N/A     41  33  73 NW17      29.87F
FAITH            N/A     44  32  62 W23G30    29.88R
MOBRIDGE       PTCLDY    36  31  82 W5        29.79F
$$

SDZ012>016-024>037-041>051-057-063-072>074-260900-
SOUTHWEST AND SOUTH CENTRAL SOUTH DAKOTA

CITY           SKY/WX    TMP DP  RH WIND       PRES   REMARKS
RAPID CTY ARPT PTCLDY    52  30  43 NW16      29.96R
PIERRE         PTCLDY    36  28  73 SW10      29.85F
CUSTER         PTCLDY    40  27  59 W10       30.05S
ELLSWORTH AFB  PTCLDY    52  31  43 NW18G26   29.96R
PHILIP         CLEAR     38  30  73 NW8       29.91S
PINE RIDGE     MOCLDY    39  30  70 W5        30.02S
WINNER         FAIR      43  33  68 W12       29.89F
$$

SDZ004>011-016>023-039-040-260900-
NORTHEAST SOUTH DAKOTA

CITY           SKY/WX    TMP DP  RH WIND       PRES   REMARKS
ABERDEEN       PTCLDY    35  30  82 SW13G22   29.76F WCI  26
WATERTOWN      PTCLDY    31  29  92 S13       29.78F WCI  21
$$

SDZ017-020-022-023-036>040-048>070-260900-
SOUTHEAST SOUTH DAKOTA

CITY           SKY/WX    TMP DP  RH WIND       PRES   REMARKS
SIOUX FALLS    FAIR      33  31  92 SW9       29.87F WCI  25
HURON          CLEAR     32  29  88 SW9       29.83F WCI  24
MITCHELL       CLEAR     33  30  88 S8        29.86F WCI  26
YANKTON        CLEAR     32  28  86 S5        29.91F WCI  27
$$

ABBREVIATIONS USED IN REMARKS
   TC - TEMPERATURE IN CELSIUS
  WCI - WIND CHILL INDEX
   HX - HEAT INDEX
  VSB - VISIBILITY




USA.gov is the U.S. government's official web portal to all federal, state and local government web resources and services.